When you browse on this site, cookies collect data to enhance your experience and personalize the content and advertising you see.
Visit our Privacy Policy to learn more. By continuing to use the site, you agree to this use of cookies and data.
  • en Suisse
  • Liste des pays
  • À 7 jours
  • Température de l'eau
  • Carte satellitaire
  • Carte météo
  • Widgets météo
  • user-avatar
    Se connecter

    Météo par heure à Tolstoi

    Ce jour, 19 Avril, Vendredi

    Heure Température Précipitation Vent Pression Humidité
    00:00 +5°C° 0 mm 2 m/s 759 mmHg 56%
    01:00 +5°C° 0 mm 2 m/s 759 mmHg 57%
    02:00 +5°C° 0 mm 2 m/s 758 mmHg 59%
    03:00 +4°C° 0 mm 2 m/s 759 mmHg 59%
    04:00 +4°C° 0 mm 2 m/s 759 mmHg 59%
    05:00 +4°C° 0 mm 2 m/s 759 mmHg 59%
    06:00 +4°C° 0 mm 3 m/s 759 mmHg 54%
    07:00 +5°C° 0 mm 4 m/s 759 mmHg 48%
    08:00 +6°C° 0 mm 5 m/s 759 mmHg 43%
    09:00 +7°C° 0 mm 5 m/s 759 mmHg 41%
    10:00 +8°C° 0 mm 6 m/s 759 mmHg 39%
    11:00 +8°C° 0 mm 6 m/s 759 mmHg 37%
    12:00 +9°C° 0 mm 6 m/s 759 mmHg 37%
    13:00 +9°C° 0 mm 6 m/s 759 mmHg 36%
    14:00 +10°C° 0 mm 6 m/s 759 mmHg 36%
    15:00 +9°C° 0 mm 6 m/s 759 mmHg 38%
    16:00 +9°C° 0 mm 5 m/s 759 mmHg 40%
    17:00 +8°C° 0 mm 5 m/s 759 mmHg 42%
    18:00 +8°C° 0 mm 4 m/s 759 mmHg 45%
    19:00 +7°C° 0 mm 4 m/s 759 mmHg 48%
    20:00 +7°C° 0 mm 3 m/s 759 mmHg 51%
    21:00 +5°C° 0 mm 3 m/s 759 mmHg 53%
    22:00 +5°C° 0 mm 3 m/s 760 mmHg 55%
    23:00 +4°C° 0 mm 3 m/s 760 mmHg 57%

    Demain, 20 Avril, Samedi

    Heure Température Précipitation Vent Pression Humidité
    00:00 +4°C° 0 mm 3 m/s 760 mmHg 58%
    01:00 +3°C° 0 mm 3 m/s 760 mmHg 60%
    02:00 +3°C° 0 mm 3 m/s 760 mmHg 61%
    03:00 +2°C° 0 mm 3 m/s 760 mmHg 62%
    04:00 +2°C° 0 mm 3 m/s 760 mmHg 63%
    05:00 +2°C° 0 mm 3 m/s 760 mmHg 64%
    06:00 +4°C° 0 mm 4 m/s 760 mmHg 57%
    07:00 +6°C° 0 mm 4 m/s 760 mmHg 49%
    08:00 +8°C° 0 mm 5 m/s 760 mmHg 42%
    09:00 +9°C° 0 mm 5 m/s 760 mmHg 40%
    10:00 +9°C° 0 mm 5 m/s 760 mmHg 38%
    11:00 +10°C° 0 mm 5 m/s 760 mmHg 36%
    12:00 +12°C° 0 mm 5 m/s 759 mmHg 35%
    13:00 +12°C° 0 mm 4 m/s 759 mmHg 34%
    14:00 +13°C° 0 mm 4 m/s 759 mmHg 33%
    15:00 +12°C° 0 mm 4 m/s 759 mmHg 34%
    16:00 +12°C° 0 mm 4 m/s 758 mmHg 36%
    17:00 +12°C° 0 mm 3 m/s 758 mmHg 38%
    18:00 +11°C° 0 mm 3 m/s 759 mmHg 41%
    19:00 +10°C° 0 mm 3 m/s 759 mmHg 43%
    20:00 +9°C° 0 mm 2 m/s 759 mmHg 46%
    21:00 +9°C° 0 mm 2 m/s 759 mmHg 48%
    22:00 +8°C° 0 mm 2 m/s 759 mmHg 49%
    23:00 +8°C° 0 mm 2 m/s 759 mmHg 51%

    Après-demain, 21 Avril, Dimanche

    Heure Température Précipitation Vent Pression Humidité
    00:00 +7°C° 0 mm 2 m/s 759 mmHg 53%
    01:00 +6°C° 0 mm 2 m/s 759 mmHg 56%
    02:00 +6°C° 0 mm 2 m/s 759 mmHg 58%
    03:00 +5°C° 0 mm 2 m/s 759 mmHg 60%
    04:00 +5°C° 0 mm 2 m/s 759 mmHg 61%
    05:00 +5°C° 0 mm 2 m/s 759 mmHg 63%
    06:00 +5°C° 0 mm 3 m/s 759 mmHg 56%
    07:00 +8°C° 0 mm 3 m/s 759 mmHg 49%
    08:00 +10°C° 0 mm 4 m/s 760 mmHg 42%
    09:00 +11°C° 0 mm 4 m/s 760 mmHg 40%
    10:00 +12°C° 0 mm 4 m/s 760 mmHg 37%
    11:00 +13°C° 0 mm 4 m/s 760 mmHg 34%
    12:00 +13°C° 0 mm 4 m/s 760 mmHg 35%
    13:00 +13°C° 0 mm 4 m/s 759 mmHg 36%
    14:00 +13°C° 0 mm 4 m/s 759 mmHg 37%
    15:00 +13°C° 0 mm 3 m/s 759 mmHg 39%
    16:00 +13°C° 0 mm 3 m/s 759 mmHg 41%
    17:00 +12°C° 0 mm 3 m/s 759 mmHg 43%
    18:00 +12°C° 0 mm 3 m/s 759 mmHg 44%
    19:00 +12°C° 0 mm 2 m/s 760 mmHg 46%
    20:00 +10°C° 0 mm 2 m/s 760 mmHg 48%
    21:00 +10°C° 0 mm 2 m/s 760 mmHg 49%
    22:00 +9°C° 0 mm 2 m/s 760 mmHg 50%
    23:00 +9°C° 0 mm 2 m/s 760 mmHg 51%

    22 Avril, Lundi

    Heure Température Précipitation Vent Pression Humidité
    00:00 +9°C° 0 mm 2 m/s 760 mmHg 52%
    01:00 +8°C° 0 mm 2 m/s 761 mmHg 53%
    02:00 +8°C° 0 mm 2 m/s 761 mmHg 54%
    03:00 +7°C° 0 mm 3 m/s 761 mmHg 57%
    04:00 +7°C° 0 mm 3 m/s 761 mmHg 59%
    05:00 +5°C° 0 mm 3 m/s 761 mmHg 62%
    06:00 +8°C° 0 mm 3 m/s 761 mmHg 55%
    07:00 +10°C° 0 mm 4 m/s 762 mmHg 48%
    08:00 +10°C° 0 mm 5 m/s 762 mmHg 41%
    09:00 +12°C° 0 mm 5 m/s 762 mmHg 40%
    10:00 +13°C° 0 mm 5 m/s 762 mmHg 38%
    11:00 +14°C° 0 mm 5 m/s 762 mmHg 37%
    12:00 +14°C° 0 mm 5 m/s 762 mmHg 36%
    13:00 +14°C° 0 mm 5 m/s 762 mmHg 36%
    14:00 +15°C° 0 mm 5 m/s 762 mmHg 35%
    15:00 +14°C° 0 mm 4 m/s 762 mmHg 38%
    16:00 +14°C° 0 mm 4 m/s 762 mmHg 42%
    17:00 +13°C° 0 mm 3 m/s 762 mmHg 45%
    18:00 +12°C° 0 mm 3 m/s 762 mmHg 49%
    19:00 +11°C° 0 mm 3 m/s 762 mmHg 52%
    20:00 +10°C° 0 mm 3 m/s 763 mmHg 55%
    21:00 +9°C° 0 mm 3 m/s 763 mmHg 57%
    22:00 +8°C° 0 mm 3 m/s 763 mmHg 58%
    23:00 +8°C° 0 mm 2 m/s 763 mmHg 60%

    23 Avril, Mardi

    Heure Température Précipitation Vent Pression Humidité
    00:00 +7°C° 0 mm 2 m/s 763 mmHg 61%
    01:00 +7°C° 0 mm 2 m/s 763 mmHg 63%
    02:00 +7°C° 0 mm 2 m/s 763 mmHg 64%
    03:00 +6°C° 0 mm 2 m/s 763 mmHg 66%
    04:00 +6°C° 0 mm 2 m/s 763 mmHg 68%
    05:00 +6°C° 0 mm 2 m/s 764 mmHg 70%
    06:00 +8°C° 0 mm 3 m/s 764 mmHg 63%
    07:00 +10°C° 0 mm 3 m/s 764 mmHg 56%
    08:00 +12°C° 0 mm 4 m/s 764 mmHg 50%
    09:00 +13°C° 0 mm 4 m/s 764 mmHg 48%
    10:00 +13°C° 0 mm 4 m/s 764 mmHg 46%
    11:00 +14°C° 0 mm 4 m/s 765 mmHg 45%
    12:00 +14°C° 0 mm 3 m/s 764 mmHg 44%
    13:00 +14°C° 0 mm 3 m/s 764 mmHg 44%
    14:00 +14°C° 0 mm 3 m/s 764 mmHg 44%
    15:00 +15°C° 0 mm 2 m/s 764 mmHg 46%
    16:00 +15°C° 0 mm 2 m/s 764 mmHg 49%
    17:00 +14°C° 0 mm 2 m/s 764 mmHg 51%
    18:00 +14°C° 0 mm 2 m/s 764 mmHg 53%
    19:00 +13°C° 0 mm 1 m/s 764 mmHg 54%
    20:00 +12°C° 0 mm 1 m/s 764 mmHg 56%
    21:00 +12°C° 0 mm 1 m/s 764 mmHg 57%
    22:00 +12°C° 0 mm 1 m/s 764 mmHg 58%
    23:00 +11°C° 0 mm 1 m/s 764 mmHg 59%

    24 Avril, Mercredi

    Heure Température Précipitation Vent Pression Humidité
    00:00 +11°C° 0 mm 1 m/s 764 mmHg 59%
    01:00 +11°C° 0 mm 1 m/s 764 mmHg 59%
    02:00 +11°C° 0 mm 1 m/s 764 mmHg 58%
    03:00 +11°C° 0 mm 1 m/s 765 mmHg 60%
    04:00 +10°C° 0 mm 2 m/s 765 mmHg 62%
    05:00 +9°C° 0 mm 2 m/s 765 mmHg 64%
    06:00 +12°C° 0 mm 2 m/s 765 mmHg 59%
    07:00 +13°C° 0 mm 3 m/s 765 mmHg 54%
    08:00 +14°C° 0 mm 3 m/s 765 mmHg 49%
    09:00 +16°C° 0 mm 3 m/s 765 mmHg 45%
    10:00 +17°C° 0 mm 3 m/s 764 mmHg 42%
    11:00 +18°C° 0 mm 3 m/s 764 mmHg 38%
    12:00 +18°C° 0 mm 3 m/s 764 mmHg 37%
    13:00 +19°C° 0 mm 3 m/s 763 mmHg 36%
    14:00 +19°C° 0 mm 3 m/s 763 mmHg 35%
    15:00 +19°C° 0 mm 2 m/s 763 mmHg 37%
    16:00 +19°C° 0 mm 2 m/s 763 mmHg 39%
    17:00 +19°C° 0 mm 2 m/s 763 mmHg 41%
    18:00 +17°C° 0 mm 2 m/s 763 mmHg 45%
    19:00 +16°C° 0 mm 2 m/s 763 mmHg 49%
    20:00 +14°C° 0 mm 2 m/s 763 mmHg 53%
    21:00 +14°C° 0 mm 2 m/s 762 mmHg 56%
    22:00 +13°C° 0 mm 2 m/s 762 mmHg 58%
    23:00 +13°C° 0 mm 2 m/s 762 mmHg 60%
    Voir plus